CZ-6A DEB

Satellite information

Favourite Embed

Satellite Type and Status

DEBRISIN ORBIT

Key statistics

Satellite CZ-6A DEB at a glance.

Uptime

907

Days in orbit

Revolutions

≈ 14.2

Per day

Orbit

SSO

Sun Synchronous Orbit

Inclination

98.9

Latest

Satellite identification and parameters

Extended collection of information and parameters for CZ-6A DEB.

Object identification

Identified? True

Debris? True

Object name: CZ-6A DEB

International designator: 2022-151XS

Object number (NORAD): 55520

Object ID (CCSDS): 55520

Country: PEOPLES REPUBLIC OF CHINA (PRC)

Current information (Y/N): Y

RCS size: SMALL

Orbital parameters

Period: 101.091 minutes

Inclination: 98.9328 deg

SMA: 7188.471 km

Apoapsis: 861.347 km

Periapsis: 759.325 km

RAAN: 159.7022 deg

Eccentricy: 0.0070962

Argument of periapsis: 282.2742 deg

Mean anomaly: 77.0497 deg

Mean motion: 14.24452567 rev/day

Mean motion (dot): 0.00003021 rev/day2

B* drag term: 0.0012902 1/REarth

Two-line elements (TLE)

Creation date: May 6, 2025, 3:54 a.m.

Reference frame: TEME

Reference center: EARTH

Epoch: May 5, 2025, 7:06 p.m. UTC

TLE line 0: 0 CZ-6A DEB

TLE line 1: 1 55520U 22151XS 25125.79586421 .00003021 00000-0 12902-2 0 9997

TLE line 2: 2 55520 98.9328 159.7022 0070962 282.2742 77.0497 14.24452567123319

Live tracking on map

Real-time ground track for satellite CZ-6A DEB.

In-orbit conjunctions

A list of the most updated potential collisions computed for object CZ-6A DEB.

Target Orbit TCA Probability of collision Miss distance Type
COSMOS 1898 LEO 2025-04-17 19:16:52 0.0001040054 727.0 (m) PAYLOAD
NOAA 6 SSO 2025-02-18 20:37:58 0.0005758899 428.0 (m) PAYLOAD
METEOR 1-13 LEO 2025-01-24 11:38:00 0.002839404 75.0 (m) PAYLOAD
THORAD AGENA D DEB LEO 2024-11-14 00:11:32 0.0001057809 643.0 (m) DEBRIS

Associated space launch

Chinese satellite reported for atmospheric/ocean/environmental/spatial parameter research purposes, details TBD.

CZ-6A DEB was lifted into orbit during the mission ‘Long March 6A | Yunhai 3’, on board a Long March 6A space rocket.

The launch took place on Nov. 11, 2022, 10:52 p.m. from Launch Complex 9A.

For more information about the launch, click the button.

Launch to space Long March 6A | Yunhai 3
Long March 6A | Yunhai 3

Agency: N/A

Status: Launch Successful

Launch date: Nov. 11, 2022, 10:52 p.m. UTC

Rocket: Long March 6A

Launch pad: Launch Complex 9A

Location: Taiyuan Satellite Launch Center, People's Republic of China

...

Latest news about this satellite

There are no fresh news available about this satellite. Check back as we update our databases every day.


Newsletter sign-up

Weekly statistics, charts and insights to help you stay on top of the space industry.